This is the latest recevied weather packets stored in our database for station/object IZ3VCM. If no packets are shown the sender has not sent any weather packets the latest 10 day(s).
| Time | Temp. | Humidity | Pressure | Rain* | Wind** | Luminosity | Snow |
|---|---|---|---|---|---|---|---|
| 1777546806 | 18.33° C | 47% | 1024.9 hPa | 0 mm | - | - | - |
| 1777545903 | 18.33° C | 48% | 1025.1 hPa | 0 mm | - | - | - |
| 1777545005 | 18.33° C | 49% | 1024.8 hPa | 0 mm | - | - | - |
| 1777544104 | 18.33° C | 48% | 1024.6 hPa | 0 mm | - | - | - |
| 1777543206 | 17.78° C | 48% | 1024.6 hPa | 0 mm | - | - | - |
| 1777542303 | 17.78° C | 48% | 1024.6 hPa | 0 mm | - | - | - |
| 1777541405 | 17.78° C | 48% | 1024.7 hPa | 0 mm | - | - | - |
| 1777540504 | 17.78° C | 50% | 1024.7 hPa | 0 mm | - | - | - |
| 1777539606 | 17.22° C | 51% | 1024.7 hPa | 0 mm | - | - | - |
| 1777538703 | 17.22° C | 53% | 1024.6 hPa | 0.51 mm | - | - | - |
| 1777537806 | 16.67° C | 57% | 1024.5 hPa | 0.51 mm | - | - | - |
| 1777536904 | 14.44° C | 60% | 1024.5 hPa | 0.51 mm | - | - | - |
| 1777536005 | 14.44° C | 61% | 1024.2 hPa | 0.51 mm | - | - | - |
| 1777535103 | 13.33° C | 62% | 1024.3 hPa | 0 mm | - | - | - |
| 1777534206 | 13.33° C | 67% | 1024.3 hPa | 0 mm | - | - | - |
| 1777533303 | 12.78° C | 69% | 1024.1 hPa | 0 mm | - | - | - |
| 1777532405 | 12.22° C | 68% | 1024 hPa | 0 mm | - | - | - |
| 1777531504 | 12.78° C | 67% | 1023.9 hPa | 0 mm | - | - | - |
| 1777530606 | 13.33° C | 66% | 1023.9 hPa | 0 mm | - | - | - |
| 1777500904 | 12.22° C | 85% | 1020.1 hPa | 0.51 mm | - | - | - |
| 1777500007 | 12.22° C | 85% | 1020 hPa | 0.51 mm | - | - | - |
| 1777499104 | 12.22° C | 84% | 1019.8 hPa | 0.51 mm | - | - | - |
| 1777498206 | 12.78° C | 83% | 1019.7 hPa | 0 mm | - | - | - |
| 1777497304 | 13.33° C | 81% | 1019.6 hPa | 0 mm | - | - | - |
| 1777496406 | 13.33° C | 82% | 1019.5 hPa | 0 mm | - | - | - |
* Rain latest hour (hover to see other rain measurements)
** Current wind speed in m/s (hover to see current wind gust speed)